Terminal Aerodrome Forecast
Issued by NWS Wilmington, NC

Home | Current Version | Previous Version | Text Only | Print | Product List | Glossary On
Versions: 1 2 3 4 5 6 7 8 9 10 11 12 13 14 15 16 17 18 19 20
684
FTUS42 KILM 300252 AAA
TAFLBT
TAF AMD
KLBT 300252Z 3003/3024 11003KT 3/4SM BR OVC003
     FM301000 13002KT 1SM BR BKN003
     FM301400 16005KT P6SM SCT025 SCT250=

USA.gov is the U.S. government's official web portal to all federal, state and local government web resources and services.